sat.trackr.live / text

‹ back to catalog

STARLINK-30912

NORAD 58422 · 2023-180W

PAYLOAD ACTIVE UNKNOWN

§ Identity

Operator
Country
US
Launch date
2023-11-22
Launch site
AFETR
Launch vehicle
Mass (kg)
RCS (m²)

Purposes: comms

External: N2YO · Heavens-Above · Gunter

§ Orbital elements

Epoch: 2026-05-24T20:06:57.028320Z

Period
94.27 min
Inclination
42.9996°
Eccentricity
0.0001833
Mean motion
15.27578697 rev/d
Perigee alt
481.8 km
Apogee alt
484.3 km
Semi-major
6,861.2 km
B*
8.5350e-6
RAAN
200.2508°
Arg perigee
276.2316°
Mean anomaly
83.8327°
Rev number
14,094

§ Raw data

STARLINK-309121 58422U 23180W   26144.83816005 -.00000027  00000+0  85350-5 0  99982 58422  42.9996 200.2508 0001833 276.2316  83.8327 15.27578697140947

JSON: /api/v1/satellites/58422 · /tle

For live sub-satellite position, see the globe view (requires WebGL).

§ Visibility from observer

Set your observer location to see the next 7 days of passes ≥ 10°. The values pass through the URL so the page stays shareable.

No JS? Fill the form by hand. The geolocation button needs JavaScript.